Location: Chenereilles
(45.4866°N, 4.0790°E)
Time: 01:39:58
(UTC+00:00)

Cosmos 2344 - Pass Details

Date: 12 November 2019
Orbit: 1258 x 2984 km, 63.3° (Epoch: 12 December)

Event Time Altitude Azimuth Distance (km) Brightness Sun altitude
Rises 17:28:25 0° 231° (SW) 4,254 7.6 -12.7°
Reaches altitude 10° 17:31:13 10° 234° (SW) 3,244 6.8 -13.1°
Maximum altitude 17:38:36 62° 315° (NW) 1,434 4.0 -14.4°
Drops below altitude 10° 17:46:55 10° 37° (NE) 3,616 5.5 -15.8°
Enters shadow 17:47:44 - 38° (NE) 3,906 5.7 -16.0°
